{"data":{"norad_id":47353,"intl_designator":"2021-005E","name":"STARLINK-2045","alt_names":[],"object_type":"PAYLOAD","status":"ACTIVE","operator":null,"country":"US","launch_date":"2021-01-20","launch_site_code":"AFETR","launch_vehicle":null,"mission":null,"orbit_class":"UNKNOWN","rcs_meters":null,"size_class":null,"mass_kg":null,"dimensions":null,"purposes":["comms"],"wikipedia_slug":null,"has_3d_model":false,"image_url":null,"decayed_at":null,"tle_current":{"epoch":"2026-05-24T23:45:17.489664Z","epoch_age_seconds":69923,"freshness":"FRESH","line1":"1 47353U 21005E   26144.98978576  .00004327  00000+0  15104-3 0  9995","line2":"2 47353  53.1607   5.7824 0001432  95.7288 264.3877 15.31715913295594","mean_motion":15.31715913,"eccentricity":0.0001432,"inclination_deg":53.1607,"raan_deg":5.7824,"arg_perigee_deg":95.7288,"mean_anomaly_deg":264.3877,"bstar":0.00015104,"rev_number":29559,"period_min":94.012211257872,"perigee_km":469.7118074184,"apogee_km":471.67331220433,"semimajor_km":6848.8295598114,"source":"CELESTRAK","updated_at":"2026-05-25T13:38:16.523939Z"}}}